Location: Newark
(36.9436°N, 82.1522°W)
Time: 01:56:29
(UTC+00:00)

Hubble Space Telescope - Visible Passes

Search period start: 16 November 2019 00:00
Search period end: 26 November 2019 00:00
Orbit: 536 x 540 km, 28.5° (Epoch: 14 November)

Date Brightness Start Highest point End Pass type
(mag) Time Alt. Az. Time Alt. Az. Time Alt. Az.
18 Nov 3.6 00:49:40 10° SSW 00:49:56 11° SSW 00:49:56 11° SSW visible
19 Nov 3.2 00:38:46 10° SW 00:40:00 15° SSW 00:40:00 15° SSW visible
19 Nov 3.3 22:49:35 10° S 22:50:37 11° SSE 22:51:39 10° SE visible
20 Nov 2.9 00:27:56 10° SW 00:30:01 19° SSW 00:30:01 19° SSW visible
20 Nov 3.2 22:37:58 10° S 22:39:54 13° SSE 22:41:50 10° SE visible
21 Nov 2.5 00:17:10 10° SW 00:20:03 23° S 00:20:03 23° S visible
22 Nov 2.3 00:06:26 10° SW 00:09:48 24° S 00:10:04 24° S visible
22 Nov 2.3 23:55:44 10° SW 23:59:08 25° S 00:00:06 23° SSE visible
23 Nov 2.5 23:45:04 10° WSW 23:48:28 25° S 23:50:10 19° SE visible
24 Nov 2.6 23:34:25 10° WSW 23:37:48 24° S 23:40:17 14° SE visible
25 Nov 2.7 23:23:49 10° WSW 23:27:07 23° S 23:30:25 10° SE visible
